Change the Weather History Date:

Sunday, June 3, 2012

  Actual Average Record
Temperature  
Mean Temperature 74 °F 73 °F  
Max Temperature 89 °F 85 °F 95 °F (1991)
Min Temperature 59 °F 62 °F 46 °F (1956)
Degree Days  
Heating Degree Days 0 0  
Month to date heating degree days 2 0  
Since 1 June heating degree days 2 0  
Since 1 July heating degree days 2773 3572  
Cooling Degree Days 9 9  
Month to date cooling degree days 9 25  
Year to date cooling degree days 403 240  
Since 1 June cooling degree days 9 25  
Growing Degree Days 24 (Base 50)    
Moisture  
Dew Point 65 °F    
Average Humidity 72    
Maximum Humidity 93    
Minimum Humidity 50    
Precipitation  
Precipitation 1.86 in 0.18 in 2.37 in (1992)
Month to date precipitation 1.94 0.54  
Year to date precipitation 14.86 24.08  
Snow  
Snow 0.00 in 0.00 in - ()
Month to date snowfall 0.0 0.0  
Since 1 June snowfall 0.0 0.0  
Since 1 July snowfall 3.3 4.6  
Snow Depth 0.00 in    
Sea Level Pressure  
Sea Level Pressure 29.89 in    
Wind  
Wind Speed 4 mph (SE)    
Max Wind Speed 13 mph    
Max Gust Speed 33 mph    
Visibility 7 miles    
Events Rain , Thunderstorm    
T = Trace of Precipitation, MM = Missing Value Source: NWS Daily Summary

Daily Weather History Graph

Daily Weather History Graph

Search for Another Location

Airport or City:

Trip Planner

Search our weather history database for the weather conditions in past years. The results will help you decide how hot, cold, wet, or windy it might be!

Date:

Astronomy

Jun. 03, 2012 Rise Set
Actual Time 5:40 AM CDT 8:07 PM CDT
Civil Twilight 5:11 AM CDT 8:37 PM CDT
Nautical Twilight 4:34 AM CDT 9:13 PM CDT
Astronomical Twilight 3:54 AM CDT 9:54 PM CDT
Moon 7:33 PM CDT (6/3) 4:47 AM CDT (6/3)
Length of Visible Light 15h 26m
Length of Day
14h 26m
Waxing Gibbous, 99% of the Moon is Illuminated
Jun 3
Waxing Gibbous
Jun 4
Full
Jun 11
Last Quarter
Jun 19
New
Jun 26
First Quarter

Hourly Weather History & Observations

Time (CDT) Temp. Heat Index Dew Point Humidity Pressure Visibility Wind Dir Wind Speed Gust Speed Precip Events Conditions
12:53 AM 59.0 °F - 57.0 °F 93% 29.93 in 10.0 mi Calm Calm - N/A   Scattered Clouds
1:53 AM 59.0 °F - 57.0 °F 93% 29.92 in 10.0 mi Calm Calm - N/A   Scattered Clouds
2:53 AM 60.1 °F - 57.0 °F 90% 29.92 in 10.0 mi Calm Calm - N/A   Mostly Cloudy
3:53 AM 60.1 °F - 57.9 °F 93% 29.91 in 10.0 mi Calm Calm - N/A   Mostly Cloudy
4:53 AM 62.1 °F - 59.0 °F 90% 29.92 in 10.0 mi Calm Calm - N/A   Overcast
5:53 AM 64.0 °F - 60.1 °F 87% 29.92 in 10.0 mi Calm Calm - N/A   Overcast
6:53 AM 66.0 °F - 61.0 °F 84% 29.94 in 10.0 mi Calm Calm - N/A   Partly Cloudy
7:53 AM 70.0 °F - 62.1 °F 76% 29.94 in 10.0 mi South 6.9 mph - N/A   Clear
8:53 AM 75.0 °F - 63.0 °F 66% 29.94 in 10.0 mi South 9.2 mph - N/A   Partly Cloudy
9:53 AM 78.1 °F - 64.0 °F 62% 29.93 in 10.0 mi South 4.6 mph - N/A   Scattered Clouds
10:53 AM 80.1 °F 81.9 °F 64.9 °F 60% 29.94 in 10.0 mi WSW 5.8 mph - N/A   Scattered Clouds
11:53 AM 82.0 °F 83.8 °F 64.9 °F 56% 29.92 in 10.0 mi Calm Calm - N/A   Mostly Cloudy
12:53 PM 84.0 °F 86.3 °F 66.0 °F 55% 29.89 in 10.0 mi Calm Calm - N/A   Scattered Clouds
1:53 PM 87.1 °F 89.9 °F 66.9 °F 51% 29.88 in 10.0 mi WSW 12.7 mph - N/A   Clear
2:53 PM 84.9 °F 87.1 °F 66.0 °F 53% 29.88 in 10.0 mi WSW 3.5 mph - N/A   Clear
3:53 PM 88.0 °F 91.4 °F 68.0 °F 51% 29.85 in 10.0 mi Variable 5.8 mph - N/A   Partly Cloudy
4:53 PM 89.1 °F 93.7 °F 69.1 °F 52% 29.85 in 10.0 mi SSW 8.1 mph - N/A   Partly Cloudy
5:53 PM 86.0 °F 92.2 °F 72.0 °F 63% 29.84 in 10.0 mi SSW 5.8 mph - N/A   Scattered Clouds
6:53 PM 84.0 °F 89.0 °F 71.1 °F 65% 29.83 in 10.0 mi SW 4.6 mph - N/A   Clear
7:53 PM 80.1 °F 83.8 °F 72.0 °F 76% 29.80 in 10.0 mi Calm Calm - N/A   Clear
8:50 PM 78.8 °F - 73.4 °F 83% 29.83 in 10.0 mi Calm Calm - 0.00 in Thunderstorm Overcast
8:53 PM 79.0 °F - 73.0 °F 82% 29.81 in 10.0 mi Calm Calm - 0.00 in Thunderstorm Overcast
9:29 PM 73.4 °F - 68.0 °F 83% 29.85 in 2.0 mi NNE 27.6 mph 33.4 mph 0.21 in Rain , Thunderstorm Heavy Thunderstorms and Rain
9:35 PM 69.8 °F - 66.2 °F 88% - 1.2 mi NNE 21.9 mph 33.4 mph 0.31 in Rain , Thunderstorm Heavy Thunderstorms and Rain
9:39 PM 69.8 °F - 66.2 °F 88% - 1.2 mi North 24.2 mph 33.4 mph 0.45 in Rain , Thunderstorm Heavy Thunderstorms and Rain
9:51 PM 66.2 °F - 66.2 °F 100% - 0.8 mi ENE 15.0 mph - 1.06 in Rain , Thunderstorm Heavy Thunderstorms and Rain
9:53 PM 66.9 °F - 66.0 °F 97% - 0.8 mi East 15.0 mph - 1.10 in Rain , Thunderstorm Heavy Thunderstorms and Rain
9:55 PM 66.2 °F - 66.2 °F 100% - 1.0 mi East 15.0 mph - 0.02 in Rain , Thunderstorm Heavy Thunderstorms and Rain
10:01 PM 66.2 °F - 66.2 °F 100% - 2.0 mi East 13.8 mph - 0.04 in Rain , Thunderstorm Thunderstorms and Rain
10:03 PM 66.2 °F - 66.2 °F 100% - 3.0 mi East 11.5 mph - 0.04 in Rain , Thunderstorm Light Thunderstorms and Rain
10:15 PM 66.2 °F - 64.4 °F 94% - 2.5 mi North 13.8 mph - 0.21 in Rain , Thunderstorm Heavy Thunderstorms and Rain
10:21 PM 66.2 °F - 66.2 °F 100% - 1.8 mi WNW 6.9 mph - 0.30 in Rain , Thunderstorm Heavy Thunderstorms and Rain
10:45 PM 66.2 °F - 66.2 °F 100% - 3.0 mi ESE 6.9 mph - 0.74 in Rain , Thunderstorm Thunderstorms and Rain
10:53 PM 66.9 °F - 64.9 °F 93% - 5.0 mi ESE 9.2 mph - 0.76 in Rain , Thunderstorm Thunderstorms and Rain
11:01 PM 66.2 °F - 64.4 °F 94% - 5.0 mi East 9.2 mph - N/A Rain , Thunderstorm Thunderstorms and Rain